Location: Unspecified
(51.5147°N, 7.4673°E)
Time: 08:15:42
(UTC+01:00)

Explorer 7 - Pass Details

Date: 18 February 2026
Orbit: 430 x 541 km, 50.2° (Epoch: 11 March)

Event Time Altitude Azimuth Distance (km) Brightness Sun altitude
Rises 20:45:18 0° 281° (W) 2,542 11.5 -27.6°
Reaches altitude 10° 20:47:39 10° 268° (W) 1,682 10.1 -27.9°
Enters shadow 20:49:33 22° 243° (WSW) 1,139 8.8 -28.2°
Maximum altitude 20:50:53 27° 210° (SSW) 999 - -28.4°
Drops below altitude 10° 20:54:13 10° 152° (SSE) 1,734 - -28.9°
Sets 20:56:41 0° 140° (SE) 2,638 - -29.2°
